User: anonymous   Login
Location: Lourdes
(43.1000°N, 0.0500°W)
Time: 16:30:02
(UTC+00:00)
Language:

COSMOS 2251 DEB - Orbit

View from above orbital plane
View from above orbital plane
View from above satellite
View from above satellite

Ground track
Ground track

The orbit data is extracted from the following two-line orbital elements,

1 40794U 93036BVX 21172.24811148  .00001047  00000-0  32356-3 0  9991
2 40794  73.9934 358.5583 0040025 134.8522  40.1910 14.42108173381091
Epoch (UTC): 21 June 2021 05:57:16
Eccentricity: 0.0040025
inclination: 73.9934°
perigee height: 723 km
apogee height: 780 km
right ascension of ascending node: 358.5583°
argument of perigee: 134.8522°
revolutions per day: 14.42108173
mean anomaly at epoch: 40.1910°
orbit number at epoch: 38109

The dashed part of the orbit path shows where the satellite is in the earth's shadow,  

DLR